Location: Dehesa de la Cepeda
(40.6574°N, 4.3013°W)
Time: 07:33:56
(UTC+00:00)

Vanguard 3 - Pass Details

Date: 07 August 2021
Orbit: 510 x 3260 km, 33.3° (Epoch: 18 September)

Event Time Altitude Azimuth Distance (km) Brightness Sun altitude
Rises 21:32:19 0° 279° (W) 6,246 12.5 -20.8°
Reaches altitude 10° 21:36:17 10° 273° (W) 5,520 12.0 -21.3°
Maximum altitude 21:52:42 46° 209° (SSW) 3,960 10.4 -23.3°
Enters shadow 22:02:33 29° 160° (SSE) 4,689 10.4 -24.5°
